Weather History for Culdrose, United Kingdom

Change the Weather History Date:

Sunday, September 9, 2012

  Actual Average Record
Temperature  
Mean Temperature 60 °F -  
Max Temperature 64 °F 60 °F 69 °F (2000)
Min Temperature 55 °F 51 °F 48 °F (2002)
Degree Days  
Heating Degree Days 6    
Growing Degree Days 10 (Base 50)    
Moisture  
Dew Point 59 °F    
Average Humidity 93    
Maximum Humidity 100    
Minimum Humidity 85    
Precipitation  
Precipitation 0.02 in - - ()
Sea Level Pressure  
Sea Level Pressure 29.84 in    
Wind  
Wind Speed 12 mph ()    
Max Wind Speed 18 mph    
Max Gust Speed 31 mph    
Visibility 4.7 miles    
Events Fog    
Averages and records for this station are not official NWS values.
T = Trace of Precipitation, MM = Missing Value Source: Averaged Metar Reports

Daily Weather History Graph

Daily Weather History Graph

Search for Another Location

Airport:

Trip Planner

Search our weather history database for the weather conditions in past years. The results will help you decide how hot, cold, wet, or windy it might be!

Date:

Astronomy

Sep. 09, 2012 Rise Set
Actual Time 6:48 AM BST 7:47 PM BST
Civil Twilight 6:15 AM BST 8:20 PM BST
Nautical Twilight 5:35 AM BST 8:59 PM BST
Astronomical Twilight 4:53 AM BST 9:41 PM BST
Moon No Moon Rise 3:48 PM BST (9/9)
Length of Visible Light 14h 04m
Length of Day
12h 58m
Last Quarter, 41% of the Moon is Illuminated
Sep 9
Last Quarter
Sep 16
New
Sep 22
First Quarter
Sep 30
Full
Oct 8
Last Quarter

Hourly Weather History & Observations

Time (BST) Temp. Dew Point Humidity Pressure Visibility Wind Dir Wind Speed Gust Speed Precip Events Conditions
12:50 AM 57 °F 57 °F 98% 29.94 in 1 mi East 11.5 mph - - Fog Partial Fog
12:50 AM 57.2 °F 57.2 °F 100% 29.92 in 0.6 mi East 11.5 mph - N/A Fog Fog
1:50 AM 57.2 °F 57.2 °F 100% 29.92 in 0.7 mi ESE 11.5 mph - N/A Fog Fog
2:50 AM 55.4 °F 55.4 °F 100% 29.89 in 0.6 mi SSE 5.8 mph - N/A Fog Patches of Fog
3:50 AM 58 °F 57 °F 94% 29.88 in 9 mi South 9.2 mph - -   Haze
3:50 AM 59.0 °F 57.2 °F 94% 29.86 in 6.2 mi South 9.2 mph - N/A   Haze
4:50 AM 60.8 °F 59.0 °F 94% 29.86 in 6.2 mi SW 11.5 mph - N/A   Overcast
5:50 AM 60.8 °F 59.0 °F 94% 29.86 in 6.2 mi SW 11.5 mph - N/A   Haze
6:50 AM 60 °F 59 °F 94% 29.85 in 3 mi SW 11.5 mph - -   Mist
6:50 AM 60.8 °F 59.0 °F 94% 29.83 in 3.1 mi SW 11.5 mph - N/A   Mostly Cloudy
7:50 AM 60.8 °F 59.0 °F 94% 29.83 in 4.3 mi SSW 10.4 mph - N/A   Haze
8:50 AM 62.6 °F 59.0 °F 88% 29.86 in 4.3 mi SW 13.8 mph - N/A   Haze
9:50 AM 62 °F 59 °F 85% 29.86 in 6 mi SW 15.0 mph - -   Haze
9:50 AM 62.6 °F 59.0 °F 88% 29.86 in 6.2 mi SW 15.0 mph - N/A   Haze
10:50 AM 62.6 °F 59.0 °F 88% 29.86 in 6.2 mi SW 11.5 mph - N/A   Haze
11:50 AM 64.4 °F 60.8 °F 88% 29.86 in 6.2 mi SW 15.0 mph - N/A   Haze
12:50 PM 64 °F 61 °F 85% 29.84 in 7 mi SW 16.1 mph - -   Haze
12:50 PM 64.4 °F 60.8 °F 88% 29.83 in 6.2 mi SW 16.1 mph - N/A   Haze
1:50 PM 64.4 °F 60.8 °F 88% 29.83 in 6.2 mi SW 16.1 mph - N/A   Haze
2:50 PM 64.4 °F 60.8 °F 88% 29.83 in 6.2 mi SW 16.1 mph - N/A   Haze
3:50 PM 63 °F 60 °F 89% 29.82 in 7 mi SW 17.3 mph - -   Haze
3:50 PM 62.6 °F 60.8 °F 94% 29.80 in 6.2 mi SW 17.3 mph - N/A   Haze
4:50 PM 62.6 °F 60.8 °F 94% 29.80 in 6.2 mi SSW 15.0 mph 26.5 mph N/A   Haze
5:50 PM 62.6 °F 60.8 °F 94% 29.77 in 0.6 mi SW 18.4 mph 31.1 mph N/A   Light Drizzle
6:50 PM 62 °F 62 °F 99% 29.79 in 0 mi SW 18.4 mph - - Fog Partial Fog
6:50 PM 62.6 °F 62.6 °F 100% 29.77 in 0.1 mi SW 18.4 mph 31.1 mph N/A Fog Fog
7:50 PM 62.6 °F 60.8 °F 94% 29.80 in 5.0 mi WSW 16.1 mph - N/A   Scattered Clouds
8:50 PM 60.8 °F 59.0 °F 94% 29.80 in 6.2 mi WSW 13.8 mph - N/A   Scattered Clouds
9:50 PM 61 °F 59 °F 92% 29.82 in 6 mi WSW 15.0 mph - -   Haze
9:50 PM 60.8 °F 59.0 °F 94% 29.80 in 6.2 mi WSW 15.0 mph - N/A   Haze
10:50 PM 60.8 °F 59.0 °F 94% 29.80 in 6.2 mi WSW 15.0 mph - N/A   Haze
11:50 PM 60.8 °F 59.0 °F 94% 29.80 in 6.2 mi SW 18.4 mph - N/A   Haze